Location: Austin
(30.3000°N, 97.7500°W)
Time: 04:06:01
(UTC-06:00)

Cosmos 2058 Rocket - Pass Details

Date: 20 November 2023
Orbit: 607 x 637 km, 82.5° (Epoch: 05 December)

Event Time Altitude Azimuth Distance (km) Brightness Sun altitude
Rises 18:09:28 0° 151° (SSE) 2,922 6.4 -8.4°
Reaches altitude 10° 18:12:15 10° 133° (SE) 2,017 5.4 -8.9°
Maximum altitude 18:15:22 19° 88° (E) 1,515 4.5 -9.6°
Drops below altitude 10° 18:18:31 10° 44° (NE) 2,019 5.2 -10.2°
Enters shadow 18:18:36 10° 43° (NE) 2,043 5.2 -10.2°
